Zurück zum Katalog

BREEZE-M R/B

AktivHEO
NORAD 33455·ROCKET BODY·🇷🇺 Russia

Gestartet Dec 10, 2008 von Baikonur Cosmodrome

Loading…

Nächste Überflüge (nächste 24 Stunden)

TLE

AlterndSource: Space-Track

Epoche: Aug 29, 2026, 20:15 UTC

1 33455U 08063C   26241.84419706 -.00000250  00000-0  00000+0 0  9998
2 33455  18.4112 125.1784 5603611 176.9761  17.5770  1.97941326128130

Verfolge BREEZE-M R/B in Echtzeit mit AllMySat

Download on the App Store